Time,TemperatureF,DewpointF,PressureIn,WindDirection,WindDirectionDegrees,WindSpeedMPH,WindSpeedGustMPH,Humidity,HourlyPrecipIn,Conditions,Clouds,dailyrainin,SoftwareType,DateUTC
2013-04-16 00:00:00,60.7,59.5,30.16,East,101,0.0,14.5,96,0.00,,SCT060,0.16,VWS V14.00,2013-04-16 04:00:00,
2013-04-16 00:01:00,57.3,56.8,30.17,NNE,32,0.0,4.2,98,0.00,,BKN060,0.00,VWS V14.00,2013-04-16 04:01:00,
2013-04-16 00:02:00,56.9,56.5,30.17,NNE,32,0.0,4.2,98,0.00,,BKN060,0.00,VWS V14.00,2013-04-16 04:02:00,
2013-04-16 00:03:00,56.7,56.3,30.17,ENE,69,0.0,4.2,98,0.00,,BKN060,0.00,VWS V14.00,2013-04-16 04:03:00,
2013-04-16 00:04:00,56.4,56.0,30.17,East,84,0.0,4.2,98,0.00,,BKN060,0.00,VWS V14.00,2013-04-16 04:04:00,
2013-04-16 00:05:00,60.6,59.4,30.16,East,101,0.0,0.0,96,0.00,,SCT060,0.16,VWS V14.00,2013-04-16 04:05:00,
2013-04-16 00:06:00,57.1,56.7,30.17,East,84,0.0,4.2,98,0.00,,BKN060,0.00,VWS V14.00,2013-04-16 04:06:00,
2013-04-16 00:07:00,57.2,56.8,30.17,East,84,0.0,4.2,98,0.00,,BKN060,0.00,VWS V14.00,2013-04-16 04:07:00,
2013-04-16 00:10:00,60.5,59.4,30.16,East,101,0.0,0.0,96,0.00,,SCT060,0.16,VWS V14.00,2013-04-16 04:10:00,
2013-04-16 00:15:00,60.4,59.3,30.16,East,101,0.0,0.0,96,0.00,,SCT060,0.16,VWS V14.00,2013-04-16 04:15:00,
2013-04-16 00:20:00,60.4,59.4,30.16,East,101,0.0,0.0,97,0.00,,SCT060,0.16,VWS V14.00,2013-04-16 04:20:00,
2013-04-16 00:25:00,60.2,59.3,30.16,East,101,0.0,0.0,97,0.00,,SCT060,0.16,VWS V14.00,2013-04-16 04:25:00,
2013-04-16 00:30:00,60.1,59.2,30.16,East,101,0.0,0.0,97,0.00,,SCT060,0.16,VWS V14.00,2013-04-16 04:30:00,
2013-04-16 00:35:00,57.7,56.9,30.17,East,101,0.0,0.0,97,0.00,,SCT060,0.16,VWS V14.00,2013-04-16 04:35:00,
2013-04-16 00:40:00,58.8,58.1,30.17,East,101,0.0,0.0,97,0.00,,SCT060,0.16,VWS V14.00,2013-04-16 04:40:00,
2013-04-16 00:45:00,58.1,57.4,30.17,East,101,0.0,0.0,98,0.00,,SCT060,0.16,VWS V14.00,2013-04-16 04:45:00,
2013-04-16 00:50:00,58.4,57.8,30.17,East,101,0.0,0.0,98,0.00,,BKN060,0.16,VWS V14.00,2013-04-16 04:50:00,
2013-04-16 00:55:00,57.1,56.6,30.17,East,101,0.0,0.0,98,0.00,,BKN060,0.16,VWS V14.00,2013-04-16 04:55:00,
2013-04-16 01:00:00,57.5,57.0,30.17,NE,48,2.8,4.2,98,0.00,,BKN060,0.16,VWS V14.00,2013-04-16 05:00:00,
2013-04-16 01:05:00,56.4,56.0,30.17,East,84,0.0,4.2,98,0.00,,BKN060,0.00,VWS V14.00,2013-04-16 05:05:00,
2013-04-16 01:10:00,57.3,56.9,30.17,East,84,0.0,4.2,98,0.00,,BKN060,0.00,VWS V14.00,2013-04-16 05:10:00,
2013-04-16 01:15:00,58.0,57.5,30.17,East,84,0.0,4.2,98,0.00,,BKN060,0.00,VWS V14.00,2013-04-16 05:15:00,
2013-04-16 01:20:00,57.8,57.3,30.17,East,84,0.0,4.2,98,0.00,,BKN060,0.00,VWS V14.00,2013-04-16 05:20:00,
2013-04-16 01:25:00,58.0,57.6,30.17,East,84,0.0,4.2,98,0.00,,BKN060,0.00,VWS V14.00,2013-04-16 05:25:00,
2013-04-16 01:30:00,57.0,56.6,30.17,East,84,0.0,4.2,98,0.00,,BKN060,0.00,VWS V14.00,2013-04-16 05:30:00,
2013-04-16 01:35:00,56.5,56.2,30.17,East,84,0.0,4.2,99,0.00,,BKN060,0.00,VWS V14.00,2013-04-16 05:35:00,
2013-04-16 01:40:00,55.3,55.1,30.17,East,84,0.0,4.2,99,0.00,,BKN060,0.00,VWS V14.00,2013-04-16 05:40:00,
2013-04-16 01:45:00,52.6,52.5,30.17,East,84,0.0,4.2,100,0.00,,BKN060,0.00,VWS V14.00,2013-04-16 05:45:00,
2013-04-16 01:50:00,55.5,55.5,30.16,East,84,0.0,4.2,100,0.00,,BKN060,0.00,VWS V14.00,2013-04-16 05:50:00,
2013-04-16 01:55:00,54.9,54.9,30.16,East,84,0.0,4.2,100,0.00,,BKN060,0.00,VWS V14.00,2013-04-16 05:55:00,
2013-04-16 02:00:00,55.8,55.8,30.16,East,84,0.0,4.2,100,0.00,,BKN060,0.00,VWS V14.00,2013-04-16 06:00:00,
2013-04-16 02:05:00,55.5,55.5,30.17,East,84,0.0,4.2,100,0.00,,BKN060,0.00,VWS V14.00,2013-04-16 06:05:00,
2013-04-16 02:10:00,55.4,55.4,30.16,East,84,0.0,4.2,100,0.00,,BKN060,0.00,VWS V14.00,2013-04-16 06:10:00,
2013-04-16 02:15:00,55.5,55.5,30.16,East,84,0.0,4.2,100,0.00,,BKN060,0.00,VWS V14.00,2013-04-16 06:15:00,
2013-04-16 02:20:00,55.2,55.2,30.16,East,84,0.0,4.2,100,0.00,,BKN060,0.00,VWS V14.00,2013-04-16 06:20:00,
2013-04-16 02:25:00,55.7,55.7,30.17,East,84,0.0,4.2,100,0.00,,BKN060,0.00,VWS V14.00,2013-04-16 06:25:00,
2013-04-16 02:30:00,55.7,55.7,30.17,East,84,0.0,4.2,100,0.00,,BKN060,0.00,VWS V14.00,2013-04-16 06:30:00,
2013-04-16 02:35:00,55.4,55.4,30.16,East,84,0.0,4.2,100,0.00,,BKN060,0.00,VWS V14.00,2013-04-16 06:35:00,
2013-04-16 02:40:00,55.3,55.3,30.16,East,84,0.0,4.2,100,0.00,,BKN060,0.00,VWS V14.00,2013-04-16 06:40:00,
2013-04-16 02:45:00,55.6,55.6,30.16,East,84,0.0,4.2,100,0.00,,BKN060,0.00,VWS V14.00,2013-04-16 06:45:00,
2013-04-16 02:50:00,55.8,55.8,30.16,East,84,0.0,4.2,100,0.00,,BKN060,0.00,VWS V14.00,2013-04-16 06:50:00,
2013-04-16 02:55:00,55.7,55.7,30.16,East,84,0.0,4.2,100,0.00,,BKN060,0.00,VWS V14.00,2013-04-16 06:55:00,
2013-04-16 03:00:00,55.5,55.5,30.15,East,84,0.0,4.2,100,0.00,,BKN060,0.00,VWS V14.00,2013-04-16 07:00:00,
2013-04-16 03:05:00,55.0,55.0,30.15,East,84,0.0,4.2,100,0.00,,BKN060,0.00,VWS V14.00,2013-04-16 07:05:00,
2013-04-16 03:10:00,54.8,54.8,30.15,East,84,0.0,4.2,100,0.00,,BKN060,0.00,VWS V14.00,2013-04-16 07:10:00,
2013-04-16 03:15:00,55.0,55.0,30.15,East,84,0.0,4.2,100,0.00,,BKN060,0.00,VWS V14.00,2013-04-16 07:15:00,
2013-04-16 03:20:00,55.5,55.5,30.15,East,84,0.0,4.2,100,0.00,,BKN060,0.00,VWS V14.00,2013-04-16 07:20:00,
2013-04-16 03:25:00,55.0,55.0,30.15,East,84,0.0,4.2,100,0.00,,BKN060,0.00,VWS V14.00,2013-04-16 07:25:00,
2013-04-16 03:30:00,54.4,54.4,30.15,East,84,0.0,4.2,100,0.00,,BKN060,0.00,VWS V14.00,2013-04-16 07:30:00,
2013-04-16 03:35:00,54.3,54.3,30.15,East,84,0.0,4.2,100,0.00,,BKN060,0.00,VWS V14.00,2013-04-16 07:35:00,
2013-04-16 03:40:00,54.1,54.1,30.16,East,84,0.0,4.2,100,0.00,,BKN060,0.00,VWS V14.00,2013-04-16 07:40:00,
2013-04-16 03:45:00,54.6,54.6,30.15,East,84,0.0,4.2,100,0.00,,BKN060,0.00,VWS V14.00,2013-04-16 07:45:00,
2013-04-16 03:50:00,54.4,54.4,30.16,East,84,0.0,4.2,100,0.00,,BKN060,0.00,VWS V14.00,2013-04-16 07:50:00,
2013-04-16 03:55:00,53.9,53.9,30.16,East,84,0.0,4.2,100,0.00,,BKN060,0.00,VWS V14.00,2013-04-16 07:55:00,
2013-04-16 04:00:00,52.9,52.9,30.16,East,84,0.0,4.2,100,0.00,,BKN060,0.00,VWS V14.00,2013-04-16 08:00:00,
2013-04-16 04:05:00,52.6,52.6,30.16,East,84,0.0,4.2,100,0.00,,BKN060,0.00,VWS V14.00,2013-04-16 08:05:00,
2013-04-16 04:10:00,51.6,51.6,30.16,East,84,0.0,4.2,100,0.00,,BKN060,0.00,VWS V14.00,2013-04-16 08:10:00,
2013-04-16 04:15:00,55.2,55.2,30.16,East,84,0.0,4.2,100,0.00,,BKN060,0.00,VWS V14.00,2013-04-16 08:15:00,
2013-04-16 04:20:00,55.9,55.9,30.16,East,84,0.0,4.2,100,0.00,,BKN060,0.00,VWS V14.00,2013-04-16 08:20:00,
2013-04-16 04:25:00,55.5,55.5,30.16,East,84,0.0,4.2,100,0.00,,BKN060,0.00,VWS V14.00,2013-04-16 08:25:00,
2013-04-16 04:30:00,55.6,55.6,30.16,East,84,0.0,4.2,100,0.00,,BKN060,0.00,VWS V14.00,2013-04-16 08:30:00,
2013-04-16 04:35:00,55.8,55.8,30.16,East,84,0.0,4.2,100,0.00,,BKN060,0.00,VWS V14.00,2013-04-16 08:35:00,
2013-04-16 04:40:00,56.0,56.0,30.16,East,84,0.0,4.2,100,0.00,,BKN060,0.00,VWS V14.00,2013-04-16 08:40:00,
2013-04-16 04:45:00,55.6,55.6,30.16,East,84,0.0,4.2,100,0.00,,BKN060,0.00,VWS V14.00,2013-04-16 08:45:00,
2013-04-16 04:50:00,54.0,54.0,30.16,East,84,0.0,4.2,100,0.00,,BKN065,0.00,VWS V14.00,2013-04-16 08:50:00,
2013-04-16 04:55:00,53.2,53.2,30.16,East,84,0.0,4.2,100,0.00,,BKN065,0.00,VWS V14.00,2013-04-16 08:55:00,
2013-04-16 05:00:00,53.3,53.3,30.16,East,84,0.0,4.2,100,0.00,,BKN065,0.00,VWS V14.00,2013-04-16 09:00:00,
2013-04-16 05:05:00,53.9,53.9,30.17,East,84,0.0,4.2,100,0.00,,BKN065,0.00,VWS V14.00,2013-04-16 09:05:00,
2013-04-16 05:10:00,53.2,53.2,30.16,East,84,0.0,4.2,100,0.00,,BKN065,0.00,VWS V14.00,2013-04-16 09:10:00,
2013-04-16 05:15:00,53.5,53.5,30.17,East,84,0.0,4.2,100,0.00,,BKN065,0.00,VWS V14.00,2013-04-16 09:15:00,
2013-04-16 05:20:00,53.8,53.8,30.17,East,84,0.0,4.2,100,0.00,,BKN065,0.00,VWS V14.00,2013-04-16 09:20:00,
2013-04-16 05:25:00,53.7,53.7,30.17,East,84,0.0,4.2,100,0.00,,BKN065,0.00,VWS V14.00,2013-04-16 09:25:00,
2013-04-16 05:30:00,54.3,54.3,30.17,East,84,0.0,4.2,100,0.00,,BKN065,0.00,VWS V14.00,2013-04-16 09:30:00,
2013-04-16 05:35:00,54.1,54.1,30.17,East,84,0.0,4.2,100,0.00,,BKN065,0.00,VWS V14.00,2013-04-16 09:35:00,
2013-04-16 05:40:00,54.7,54.7,30.17,East,84,0.0,4.2,100,0.00,,BKN065,0.00,VWS V14.00,2013-04-16 09:40:00,
2013-04-16 05:45:00,54.3,54.3,30.17,East,84,0.0,4.2,100,0.00,,BKN065,0.00,VWS V14.00,2013-04-16 09:45:00,
2013-04-16 05:50:00,54.4,54.4,30.17,East,84,0.0,4.2,100,0.00,,BKN060,0.00,VWS V14.00,2013-04-16 09:50:00,
2013-04-16 05:55:00,54.6,54.6,30.18,East,84,0.0,4.2,100,0.00,,BKN060,0.00,VWS V14.00,2013-04-16 09:55:00,
2013-04-16 06:00:00,55.1,55.1,30.17,East,84,0.0,4.2,100,0.00,,BKN060,0.00,VWS V14.00,2013-04-16 10:00:00,
2013-04-16 06:05:00,54.9,54.9,30.17,East,84,0.0,4.2,100,0.00,,OVC060,0.00,VWS V14.00,2013-04-16 10:05:00,
2013-04-16 06:10:00,53.8,53.8,30.17,East,84,0.0,4.2,100,0.00,,OVC060,0.00,VWS V14.00,2013-04-16 10:10:00,
2013-04-16 06:15:00,54.6,54.6,30.18,East,84,0.0,4.2,100,0.00,,OVC060,0.00,VWS V14.00,2013-04-16 10:15:00,
2013-04-16 06:20:00,55.2,55.2,30.18,East,84,0.0,4.2,100,0.00,,OVC060,0.00,VWS V14.00,2013-04-16 10:20:00,
2013-04-16 06:25:00,55.2,55.2,30.18,East,84,0.0,4.2,100,0.00,,OVC060,0.00,VWS V14.00,2013-04-16 10:25:00,
2013-04-16 06:30:00,54.9,54.9,30.18,East,84,0.0,4.2,100,0.00,,OVC060,0.00,VWS V14.00,2013-04-16 10:30:00,
2013-04-16 06:35:00,54.7,54.7,30.18,East,84,0.0,4.2,100,0.00,,OVC060,0.00,VWS V14.00,2013-04-16 10:35:00,
2013-04-16 06:40:00,55.4,55.4,30.18,East,84,0.0,4.2,100,0.00,,OVC060,0.00,VWS V14.00,2013-04-16 10:40:00,
2013-04-16 06:45:00,55.7,55.7,30.18,East,84,0.0,4.2,100,0.00,,OVC060,0.00,VWS V14.00,2013-04-16 10:45:00,
2013-04-16 06:50:00,56.0,56.0,30.19,East,84,0.0,4.2,100,0.00,,OVC060,0.00,VWS V14.00,2013-04-16 10:50:00,
2013-04-16 06:55:00,55.9,55.9,30.19,East,84,0.0,4.2,100,0.00,,OVC060,0.00,VWS V14.00,2013-04-16 10:55:00,
2013-04-16 07:00:00,55.6,55.6,30.19,East,84,0.0,4.2,100,0.00,,OVC060,0.00,VWS V14.00,2013-04-16 11:00:00,
2013-04-16 07:05:00,55.7,55.7,30.19,East,84,0.0,4.2,100,0.00,,OVC060,0.00,VWS V14.00,2013-04-16 11:05:00,
2013-04-16 07:10:00,55.7,55.7,30.19,East,84,0.0,4.2,100,0.00,,OVC060,0.00,VWS V14.00,2013-04-16 11:10:00,
2013-04-16 07:15:00,56.3,56.3,30.20,East,84,0.0,4.2,100,0.00,,OVC060,0.00,VWS V14.00,2013-04-16 11:15:00,
2013-04-16 07:20:00,56.4,56.4,30.19,East,84,0.0,4.2,100,0.00,,OVC060,0.00,VWS V14.00,2013-04-16 11:20:00,
2013-04-16 07:25:00,55.8,55.8,30.19,East,84,0.0,4.2,100,0.00,,OVC060,0.00,VWS V14.00,2013-04-16 11:25:00,
2013-04-16 07:30:00,56.4,56.4,30.19,SSE,148,3.2,6.9,100,0.00,,OVC060,0.00,VWS V14.00,2013-04-16 11:30:00,
2013-04-16 07:35:00,56.5,56.5,30.19,SE,132,0.0,6.9,100,0.00,,OVC060,0.00,VWS V14.00,2013-04-16 11:35:00,
2013-04-16 07:40:00,56.5,56.5,30.20,SW,222,0.0,6.9,100,0.00,,OVC060,0.00,VWS V14.00,2013-04-16 11:40:00,
2013-04-16 07:45:00,56.6,56.6,30.20,South,180,0.0,8.1,100,0.00,,OVC060,0.00,VWS V14.00,2013-04-16 11:45:00,
2013-04-16 07:50:00,55.8,55.8,30.20,SSW,200,0.0,8.1,100,0.00,,BKN060,0.00,VWS V14.00,2013-04-16 11:50:00,
2013-04-16 07:55:00,56.4,56.4,30.20,South,187,0.0,8.1,100,0.00,,BKN060,0.00,VWS V14.00,2013-04-16 11:55:00,
2013-04-16 08:00:00,56.8,56.8,30.20,South,173,0.0,8.1,100,0.00,,BKN060,0.00,VWS V14.00,2013-04-16 12:00:00,
2013-04-16 08:05:00,56.5,56.5,30.21,SSE,167,0.0,8.1,100,0.00,,BKN060,0.00,VWS V14.00,2013-04-16 12:05:00,
2013-04-16 08:10:00,57.0,57.0,30.21,SSE,167,0.0,8.1,100,0.00,,BKN060,0.00,VWS V14.00,2013-04-16 12:10:00,
2013-04-16 08:15:00,56.2,56.2,30.21,SSE,167,0.0,8.1,100,0.00,,BKN060,0.00,VWS V14.00,2013-04-16 12:15:00,
2013-04-16 08:20:00,57.8,57.8,30.21,SSE,167,0.0,8.1,100,0.00,,BKN060,0.00,VWS V14.00,2013-04-16 12:20:00,
2013-04-16 08:25:00,56.8,56.8,30.21,SSW,202,0.0,8.1,100,0.00,,BKN060,0.00,VWS V14.00,2013-04-16 12:25:00,
2013-04-16 08:30:00,56.7,56.7,30.22,SSW,202,0.0,8.1,100,0.00,,BKN060,0.00,VWS V14.00,2013-04-16 12:30:00,
2013-04-16 08:35:00,56.2,56.2,30.22,SSW,202,0.0,8.1,100,0.00,,BKN060,0.00,VWS V14.00,2013-04-16 12:35:00,
2013-04-16 08:40:00,57.7,57.7,30.22,SSE,163,0.0,8.1,100,0.00,,BKN060,0.00,VWS V14.00,2013-04-16 12:40:00,
2013-04-16 08:45:00,58.8,58.8,30.22,South,183,0.0,8.1,100,0.00,,BKN060,0.00,VWS V14.00,2013-04-16 12:45:00,
2013-04-16 08:50:00,59.5,59.5,30.22,South,183,0.0,8.1,100,0.00,,BKN060,0.00,VWS V14.00,2013-04-16 12:50:00,
2013-04-16 08:55:00,60.0,60.0,30.22,South,183,0.0,8.1,100,0.00,,BKN060,0.00,VWS V14.00,2013-04-16 12:55:00,
2013-04-16 09:00:00,60.0,60.0,30.22,South,183,0.0,8.1,100,0.00,,BKN060,0.00,VWS V14.00,2013-04-16 13:00:00,
2013-04-16 09:05:00,59.1,59.1,30.22,South,183,0.0,8.1,100,0.00,,BKN060,0.00,VWS V14.00,2013-04-16 13:05:00,
2013-04-16 09:10:00,54.6,54.6,30.22,South,183,0.0,8.1,100,0.00,,BKN060,0.00,VWS V14.00,2013-04-16 13:10:00,
2013-04-16 09:15:00,57.3,57.3,30.22,ESE,105,0.0,8.1,100,0.00,,BKN060,0.00,VWS V14.00,2013-04-16 13:15:00,
2013-04-16 09:20:00,56.5,56.5,30.22,ESE,105,0.0,8.1,100,0.00,,BKN060,0.00,VWS V14.00,2013-04-16 13:20:00,
2013-04-16 09:25:00,55.3,55.3,30.22,SE,131,3.5,8.1,100,0.00,,BKN060,0.00,VWS V14.00,2013-04-16 13:25:00,
2013-04-16 09:30:00,62.8,62.8,30.22,East,87,0.0,8.1,100,0.00,,BKN060,0.00,VWS V14.00,2013-04-16 13:30:00,
2013-04-16 09:35:00,63.7,63.5,30.23,East,87,0.0,8.1,99,0.00,,BKN060,0.00,VWS V14.00,2013-04-16 13:35:00,
2013-04-16 09:40:00,63.9,63.2,30.23,SSE,155,4.6,8.1,98,0.00,,BKN060,0.00,VWS V14.00,2013-04-16 13:40:00,
2013-04-16 09:45:00,64.4,63.4,30.23,ESE,107,0.0,8.1,97,0.00,,BKN060,0.00,VWS V14.00,2013-04-16 13:45:00,
2013-04-16 09:50:00,65.0,64.0,30.23,ESE,107,0.0,8.1,96,0.00,,BKN060,0.00,VWS V14.00,2013-04-16 13:50:00,
2013-04-16 09:55:00,64.9,63.5,30.23,ESE,107,0.0,8.1,95,0.00,,BKN060,0.00,VWS V14.00,2013-04-16 13:55:00,
2013-04-16 10:00:00,63.8,62.1,30.23,WSW,243,0.0,8.1,94,0.00,,BKN060,0.00,VWS V14.00,2013-04-16 14:00:00,
2013-04-16 10:05:00,62.9,61.1,30.23,SSW,207,0.0,8.1,94,0.00,,BKN060,0.00,VWS V14.00,2013-04-16 14:05:00,
2013-04-16 10:10:00,60.4,58.0,30.23,ESE,120,0.0,8.1,92,0.00,,BKN060,0.00,VWS V14.00,2013-04-16 14:10:00,
2013-04-16 10:15:00,58.5,56.0,30.23,SE,146,0.0,8.1,91,0.00,,BKN060,0.00,VWS V14.00,2013-04-16 14:15:00,
2013-04-16 10:20:00,60.1,57.4,30.23,SE,146,0.0,8.1,91,0.00,,BKN060,0.00,VWS V14.00,2013-04-16 14:20:00,
2013-04-16 10:25:00,60.1,57.5,30.23,WSW,250,4.3,8.1,91,0.00,,BKN060,0.00,VWS V14.00,2013-04-16 14:25:00,
2013-04-16 10:30:00,62.8,60.2,30.23,WSW,256,0.0,8.1,91,0.00,,BKN060,0.00,VWS V14.00,2013-04-16 14:30:00,
2013-04-16 10:35:00,61.3,58.5,30.24,WSW,252,7.8,8.3,90,0.00,,BKN060,0.00,VWS V14.00,2013-04-16 14:35:00,
2013-04-16 10:40:00,62.8,59.7,30.24,South,173,3.5,8.3,90,0.00,,BKN060,0.00,VWS V14.00,2013-04-16 14:40:00,
2013-04-16 10:45:00,63.3,60.0,30.24,WSW,250,0.0,8.3,89,0.00,,BKN060,0.00,VWS V14.00,2013-04-16 14:45:00,
2013-04-16 10:50:00,63.3,59.9,30.24,ESE,121,2.2,8.3,89,0.00,,BKN016,0.00,VWS V14.00,2013-04-16 14:50:00,
2013-04-16 10:55:00,63.2,59.8,30.24,South,173,0.0,8.3,88,0.00,,BKN016,0.00,VWS V14.00,2013-04-16 14:55:00,
2013-04-16 11:00:00,64.9,60.3,30.24,South,173,0.0,8.3,85,0.00,,BKN016,0.00,VWS V14.00,2013-04-16 15:00:00,
2013-04-16 11:05:00,66.2,61.4,30.24,South,173,0.0,8.3,84,0.00,,BKN016,0.00,VWS V14.00,2013-04-16 15:05:00,
2013-04-16 11:10:00,67.1,61.2,30.24,WSW,255,3.4,8.3,81,0.00,,BKN016,0.00,VWS V14.00,2013-04-16 15:10:00,
2013-04-16 11:15:00,68.4,62.8,30.24,WSW,256,0.0,8.3,82,0.00,,BKN016,0.00,VWS V14.00,2013-04-16 15:15:00,
2013-04-16 11:20:00,69.1,63.3,30.24,SSW,197,5.6,8.3,82,0.00,,BKN016,0.00,VWS V14.00,2013-04-16 15:20:00,
2013-04-16 11:25:00,69.4,62.9,30.24,SW,235,5.4,8.8,80,0.00,,BKN016,0.00,VWS V14.00,2013-04-16 15:25:00,
2013-04-16 11:30:00,69.4,62.9,30.24,WSW,255,0.0,8.8,80,0.00,,BKN016,0.00,VWS V14.00,2013-04-16 15:30:00,
2013-04-16 11:35:00,69.5,62.9,30.25,WNW,283,0.0,8.8,80,0.00,,BKN016,0.00,VWS V14.00,2013-04-16 15:35:00,
2013-04-16 11:40:00,69.4,63.4,30.24,SW,214,0.0,8.8,81,0.00,,BKN016,0.00,VWS V14.00,2013-04-16 15:40:00,
2013-04-16 11:45:00,69.3,63.3,30.24,ENE,73,0.0,8.8,81,0.00,,BKN016,0.00,VWS V14.00,2013-04-16 15:45:00,
2013-04-16 11:50:00,69.8,63.0,30.24,ESE,118,5.2,8.8,79,0.00,,BKN039,0.00,VWS V14.00,2013-04-16 15:50:00,
2013-04-16 11:55:00,70.0,62.6,30.24,SE,135,0.0,8.8,77,0.00,,BKN039,0.00,VWS V14.00,2013-04-16 15:55:00,
2013-04-16 12:00:00,69.6,62.0,30.24,SE,135,0.0,8.8,77,0.00,,BKN039,0.00,VWS V14.00,2013-04-16 16:00:00,
2013-04-16 12:05:00,67.3,59.5,30.24,WNW,298,0.0,8.8,76,0.00,,BKN039,0.00,VWS V14.00,2013-04-16 16:05:00,
2013-04-16 12:10:00,65.9,58.8,30.24,West,278,0.0,8.8,78,0.00,,BKN039,0.00,VWS V14.00,2013-04-16 16:10:00,
2013-04-16 12:15:00,66.8,60.3,30.24,West,278,0.0,8.8,80,0.00,,BKN039,0.00,VWS V14.00,2013-04-16 16:15:00,
2013-04-16 12:20:00,66.8,61.1,30.24,North,359,3.0,8.8,82,0.00,,BKN039,0.00,VWS V14.00,2013-04-16 16:20:00,
2013-04-16 12:25:00,67.9,62.8,30.24,North,6,0.0,8.8,84,0.00,,BKN039,0.00,VWS V14.00,2013-04-16 16:25:00,
2013-04-16 12:30:00,67.3,62.7,30.24,NNW,338,4.2,8.8,85,0.00,,BKN039,0.00,VWS V14.00,2013-04-16 16:30:00,
2013-04-16 12:35:00,67.1,62.8,30.24,NNW,335,0.0,8.8,86,0.00,,BKN039,0.00,VWS V14.00,2013-04-16 16:35:00,
2013-04-16 12:40:00,67.1,63.2,30.24,NNW,335,0.0,8.8,87,0.00,,BKN039,0.00,VWS V14.00,2013-04-16 16:40:00,
2013-04-16 12:45:00,67.2,63.5,30.24,NNW,335,0.0,8.8,88,0.00,,BKN039,0.00,VWS V14.00,2013-04-16 16:45:00,
2013-04-16 12:50:00,67.2,63.4,30.23,NNW,335,0.0,8.8,88,0.00,,OVC046,0.00,VWS V14.00,2013-04-16 16:50:00,
2013-04-16 12:55:00,67.3,63.2,30.23,NNW,335,0.0,8.8,87,0.00,,OVC046,0.00,VWS V14.00,2013-04-16 16:55:00,
2013-04-16 13:00:00,67.5,63.4,30.23,NNW,335,0.0,8.8,87,0.00,,OVC046,0.00,VWS V14.00,2013-04-16 17:00:00,
2013-04-16 13:05:00,68.1,63.6,30.23,NNW,335,0.0,8.8,85,0.00,,OVC050,0.00,VWS V14.00,2013-04-16 17:05:00,
2013-04-16 13:10:00,68.4,63.3,30.23,WSW,257,0.0,8.8,84,0.00,,OVC050,0.00,VWS V14.00,2013-04-16 17:10:00,
2013-04-16 13:15:00,69.0,64.0,30.23,WSW,257,0.0,8.8,84,0.00,,OVC050,0.00,VWS V14.00,2013-04-16 17:15:00,
2013-04-16 13:20:00,69.2,63.5,30.23,WSW,257,0.0,8.8,82,0.00,,OVC050,0.00,VWS V14.00,2013-04-16 17:20:00,
2013-04-16 13:25:00,69.4,63.3,30.23,South,187,0.0,8.8,81,0.00,,OVC050,0.00,VWS V14.00,2013-04-16 17:25:00,
2013-04-16 13:30:00,69.7,63.7,30.22,South,187,0.0,8.8,81,0.00,,OVC050,0.00,VWS V14.00,2013-04-16 17:30:00,
2013-04-16 13:35:00,69.2,63.2,30.22,WSW,238,0.0,8.8,81,0.00,,OVC050,0.00,VWS V14.00,2013-04-16 17:35:00,
2013-04-16 13:40:00,67.9,60.9,30.22,WSW,238,0.0,8.8,78,0.00,,OVC050,0.00,VWS V14.00,2013-04-16 17:40:00,
2013-04-16 13:45:00,66.5,59.5,30.22,NNE,22,0.0,8.8,78,0.00,,OVC050,0.00,VWS V14.00,2013-04-16 17:45:00,
2013-04-16 13:50:00,69.0,62.0,30.21,SSW,193,0.0,8.8,78,0.00,,OVC050,0.00,VWS V14.00,2013-04-16 17:50:00,
2013-04-16 13:55:00,72.2,63.8,30.21,South,179,0.0,8.8,75,0.00,,OVC050,0.00,VWS V14.00,2013-04-16 17:55:00,
2013-04-16 14:00:00,72.1,63.1,30.21,WSW,253,3.4,8.8,73,0.00,,OVC050,0.00,VWS V14.00,2013-04-16 18:00:00,
2013-04-16 14:05:00,72.0,63.5,30.21,ESE,107,0.0,8.8,75,0.00,,BKN055,0.00,VWS V14.00,2013-04-16 18:05:00,
2013-04-16 14:10:00,71.9,63.2,30.21,ESE,107,0.0,8.8,74,0.00,,BKN055,0.00,VWS V14.00,2013-04-16 18:10:00,
2013-04-16 14:15:00,72.0,63.0,30.21,ESE,107,0.0,8.8,73,0.00,,BKN055,0.00,VWS V14.00,2013-04-16 18:15:00,
2013-04-16 14:20:00,72.3,63.1,30.21,SE,145,0.0,8.8,73,0.00,,BKN055,0.00,VWS V14.00,2013-04-16 18:20:00,
2013-04-16 14:25:00,71.5,61.4,30.21,East,86,0.0,8.8,70,0.00,,BKN055,0.00,VWS V14.00,2013-04-16 18:25:00,
2013-04-16 14:30:00,72.2,60.9,30.21,WSW,250,2.7,8.8,68,0.00,,BKN055,0.00,VWS V14.00,2013-04-16 18:30:00,
2013-04-16 14:35:00,72.2,61.6,30.21,WSW,250,0.0,8.8,69,0.00,,BKN055,0.00,VWS V14.00,2013-04-16 18:35:00,
2013-04-16 14:40:00,72.3,61.6,30.20,WSW,250,0.0,8.8,69,0.00,,BKN055,0.00,VWS V14.00,2013-04-16 18:40:00,
2013-04-16 14:45:00,72.2,62.0,30.20,WSW,250,0.0,8.8,70,0.00,,BKN055,0.00,VWS V14.00,2013-04-16 18:45:00,
2013-04-16 14:50:00,72.2,62.1,30.20,WSW,250,0.0,8.8,71,0.00,,SCT050,0.00,VWS V14.00,2013-04-16 18:50:00,
2013-04-16 14:55:00,72.9,61.7,30.19,South,186,0.0,8.8,68,0.00,,SCT050,0.00,VWS V14.00,2013-04-16 18:55:00,
2013-04-16 15:00:00,72.8,61.1,30.19,South,179,0.0,8.8,67,0.00,,SCT050,0.00,VWS V14.00,2013-04-16 19:00:00,
2013-04-16 15:05:00,73.4,61.5,30.19,SSE,165,3.4,8.8,66,0.00,,SCT050,0.00,VWS V14.00,2013-04-16 19:05:00,
2013-04-16 15:10:00,73.1,59.6,30.19,SSW,202,0.0,9.1,63,0.00,,SCT050,0.00,VWS V14.00,2013-04-16 19:10:00,
2013-04-16 15:15:00,73.8,60.2,30.19,South,183,6.0,9.6,62,0.00,,SCT050,0.00,VWS V14.00,2013-04-16 19:15:00,
2013-04-16 15:20:00,73.8,59.7,30.19,SSW,207,0.0,9.6,61,0.00,,SCT050,0.00,VWS V14.00,2013-04-16 19:20:00,
2013-04-16 15:25:00,73.7,60.2,30.18,SSW,207,0.0,9.6,63,0.00,,SCT050,0.00,VWS V14.00,2013-04-16 19:25:00,
2013-04-16 15:30:00,73.6,61.0,30.17,SE,134,0.0,9.6,65,0.00,,SCT050,0.00,VWS V14.00,2013-04-16 19:30:00,
2013-04-16 15:35:00,73.9,60.8,30.17,SE,139,0.0,9.6,64,0.00,,SCT050,0.00,VWS V14.00,2013-04-16 19:35:00,
2013-04-16 15:40:00,73.9,60.8,30.17,SE,128,0.0,9.6,64,0.00,,SCT050,0.00,VWS V14.00,2013-04-16 19:40:00,
2013-04-16 15:45:00,73.8,61.2,30.17,South,183,1.6,9.6,65,0.00,,SCT050,0.00,VWS V14.00,2013-04-16 19:45:00,
2013-04-16 15:50:00,73.7,61.0,30.17,SSE,163,0.0,9.6,65,0.00,,BKN055,0.00,VWS V14.00,2013-04-16 19:50:00,
2013-04-16 15:55:00,74.1,60.4,30.16,SSW,207,0.0,9.6,62,0.00,,BKN055,0.00,VWS V14.00,2013-04-16 19:55:00,
2013-04-16 16:00:00,74.5,61.7,30.16,South,176,0.0,9.6,64,0.00,,BKN055,0.00,VWS V14.00,2013-04-16 20:00:00,
2013-04-16 16:05:00,74.4,61.6,30.16,SSW,212,0.0,9.6,64,0.00,,BKN055,0.00,VWS V14.00,2013-04-16 20:05:00,
2013-04-16 16:10:00,74.1,61.2,30.16,SW,214,3.3,9.6,64,0.00,,BKN055,0.00,VWS V14.00,2013-04-16 20:10:00,
2013-04-16 16:15:00,74.0,61.9,30.16,SSW,197,0.0,9.6,66,0.00,,BKN055,0.00,VWS V14.00,2013-04-16 20:15:00,
2013-04-16 16:20:00,73.5,61.4,30.16,East,79,0.0,9.6,66,0.00,,BKN055,0.00,VWS V14.00,2013-04-16 20:20:00,
2013-04-16 16:25:00,73.4,61.7,30.15,ESE,104,0.0,9.6,67,0.00,,BKN055,0.00,VWS V14.00,2013-04-16 20:25:00,
2013-04-16 16:30:00,74.1,61.3,30.15,South,186,0.0,9.6,64,0.00,,BKN055,0.00,VWS V14.00,2013-04-16 20:30:00,
2013-04-16 16:35:00,74.5,60.8,30.15,SW,214,6.0,10.4,62,0.00,,BKN055,0.00,VWS V14.00,2013-04-16 20:35:00,
2013-04-16 16:40:00,74.3,59.7,30.15,SSW,193,0.0,10.4,60,0.00,,BKN055,0.00,VWS V14.00,2013-04-16 20:40:00,
2013-04-16 16:45:00,74.6,60.4,30.15,South,180,2.8,10.4,61,0.00,,SCT055,0.00,VWS V14.00,2013-04-16 20:45:00,
2013-04-16 16:50:00,74.1,60.3,30.15,SSW,193,0.0,10.4,62,0.00,,SCT055,0.00,VWS V14.00,2013-04-16 20:50:00,
2013-04-16 16:55:00,73.8,60.6,30.15,South,174,0.0,10.4,63,0.00,,SCT055,0.00,VWS V14.00,2013-04-16 20:55:00,
2013-04-16 17:00:00,73.6,60.5,30.15,WSW,239,0.0,10.4,64,0.00,,SCT055,0.00,VWS V14.00,2013-04-16 21:00:00,
2013-04-16 17:05:00,73.0,60.4,30.15,South,188,0.0,10.4,65,0.00,,SCT055,0.00,VWS V14.00,2013-04-16 21:05:00,
2013-04-16 17:10:00,72.5,59.8,30.15,South,183,0.0,10.4,64,0.00,,SCT055,0.00,VWS V14.00,2013-04-16 21:10:00,
2013-04-16 17:15:00,73.5,60.6,30.15,SSE,163,0.0,10.4,64,0.00,,SCT055,0.00,VWS V14.00,2013-04-16 21:15:00,
2013-04-16 17:20:00,73.6,60.3,30.15,SE,128,0.0,10.4,63,0.00,,SCT055,0.00,VWS V14.00,2013-04-16 21:20:00,
2013-04-16 17:25:00,73.4,60.1,30.15,SSW,197,0.0,10.4,63,0.00,,SCT055,0.00,VWS V14.00,2013-04-16 21:25:00,
2013-04-16 17:30:00,73.4,60.1,30.15,SSW,197,0.0,10.4,63,0.00,,SCT055,0.00,VWS V14.00,2013-04-16 21:30:00,
2013-04-16 17:35:00,73.7,60.0,30.15,SSW,197,0.0,10.4,62,0.00,,SCT055,0.00,VWS V14.00,2013-04-16 21:35:00,
2013-04-16 17:40:00,73.7,60.4,30.15,SE,131,4.2,10.4,63,0.00,,SCT055,0.00,VWS V14.00,2013-04-16 21:40:00,
2013-04-16 17:45:00,73.9,60.2,30.15,SSW,200,7.0,10.4,62,0.00,,BKN050,0.00,VWS V14.00,2013-04-16 21:45:00,
2013-04-16 17:50:00,73.8,59.9,30.15,South,177,0.0,10.4,62,0.00,,BKN050,0.00,VWS V14.00,2013-04-16 21:50:00,
2013-04-16 17:55:00,74.5,60.5,30.15,SW,214,3.4,10.4,62,0.00,,BKN050,0.00,VWS V14.00,2013-04-16 21:55:00,
2013-04-16 18:00:00,74.8,60.0,30.15,South,187,0.0,10.4,60,0.00,,BKN050,0.00,VWS V14.00,2013-04-16 22:00:00,
2013-04-16 18:05:00,75.2,60.0,30.15,South,183,4.3,10.4,59,0.00,,BKN050,0.00,VWS V14.00,2013-04-16 22:05:00,
2013-04-16 18:10:00,75.2,59.7,30.15,SW,228,8.1,10.4,59,0.00,,BKN050,0.00,VWS V14.00,2013-04-16 22:10:00,
2013-04-16 18:15:00,75.0,60.0,30.15,SSE,163,0.0,10.4,60,0.00,,BKN050,0.00,VWS V14.00,2013-04-16 22:15:00,
2013-04-16 18:20:00,74.9,59.9,30.15,South,173,3.4,10.4,60,0.00,,BKN050,0.00,VWS V14.00,2013-04-16 22:20:00,
2013-04-16 18:25:00,75.0,59.9,30.15,South,186,0.0,10.4,59,0.00,,BKN050,0.00,VWS V14.00,2013-04-16 22:25:00,
2013-04-16 18:30:00,75.1,59.9,30.15,South,177,0.0,10.4,59,0.00,,BKN050,0.00,VWS V14.00,2013-04-16 22:30:00,
2013-04-16 18:35:00,75.2,59.9,30.15,WSW,245,0.0,10.4,59,0.00,,BKN050,0.00,VWS V14.00,2013-04-16 22:35:00,
2013-04-16 18:40:00,75.2,59.6,30.15,WSW,245,0.0,10.4,58,0.00,,BKN050,0.00,VWS V14.00,2013-04-16 22:40:00,
2013-04-16 18:45:00,75.2,59.7,30.15,SSW,198,3.3,10.4,59,0.00,,SCT048,0.00,VWS V14.00,2013-04-16 22:45:00,
2013-04-16 18:50:00,75.2,60.1,30.15,SSW,197,7.4,10.4,59,0.00,,SCT048,0.00,VWS V14.00,2013-04-16 22:50:00,
2013-04-16 18:55:00,74.7,60.2,30.15,WSW,250,3.2,10.4,61,0.00,,SCT048,0.00,VWS V14.00,2013-04-16 22:55:00,
2013-04-16 19:00:00,74.1,59.8,30.15,SSW,205,4.2,10.9,61,0.00,,SCT048,0.00,VWS V14.00,2013-04-16 23:00:00,
2013-04-16 19:05:00,73.8,59.9,30.15,South,188,0.0,10.9,62,0.00,,SCT048,0.00,VWS V14.00,2013-04-16 23:05:00,
2013-04-16 19:10:00,73.7,60.1,30.15,SW,214,2.6,10.9,62,0.00,,SCT048,0.00,VWS V14.00,2013-04-16 23:10:00,
2013-04-16 19:15:00,73.0,59.6,30.15,SW,225,5.3,10.9,63,0.00,,SCT048,0.00,VWS V14.00,2013-04-16 23:15:00,
2013-04-16 19:20:00,67.3,54.5,30.15,South,169,4.6,10.9,64,0.00,,SCT048,0.00,VWS V14.00,2013-04-16 23:20:00,
2013-04-16 19:25:00,67.4,55.0,30.15,SW,232,0.0,10.9,64,0.00,,SCT048,0.00,VWS V14.00,2013-04-16 23:25:00,
2013-04-16 19:30:00,68.4,56.2,30.15,SW,224,4.6,10.9,65,0.00,,SCT048,0.00,VWS V14.00,2013-04-16 23:30:00,
2013-04-16 19:35:00,69.4,57.4,30.15,South,183,4.3,10.9,66,0.00,,SCT048,0.00,VWS V14.00,2013-04-16 23:35:00,
2013-04-16 19:40:00,69.6,57.8,30.15,SW,215,0.0,10.9,66,0.00,,SCT048,0.00,VWS V14.00,2013-04-16 23:40:00,
2013-04-16 19:45:00,69.2,57.6,30.15,SSW,204,0.0,10.9,66,0.00,,FEW045,0.00,VWS V14.00,2013-04-16 23:45:00,
2013-04-16 19:50:00,70.4,59.0,30.15,South,181,0.0,10.9,67,0.00,,FEW045,0.00,VWS V14.00,2013-04-16 23:50:00,
2013-04-16 19:55:00,69.2,58.2,30.15,South,187,0.0,10.9,68,0.00,,FEW045,0.00,VWS V14.00,2013-04-16 23:55:00,
2013-04-16 20:00:00,68.2,57.5,30.15,SSW,210,0.0,10.9,69,0.00,,FEW045,0.00,VWS V14.00,2013-04-17 00:00:00,
2013-04-16 20:05:00,67.2,56.9,30.15,SSW,212,0.0,10.9,69,0.00,,FEW045,0.00,VWS V14.00,2013-04-17 00:05:00,
2013-04-16 20:10:00,68.6,58.5,30.15,SW,217,5.3,10.9,70,0.00,,FEW045,0.00,VWS V14.00,2013-04-17 00:10:00,
2013-04-16 20:15:00,68.6,58.6,30.15,SSW,200,3.4,10.9,70,0.00,,FEW045,0.00,VWS V14.00,2013-04-17 00:15:00,
2013-04-16 20:20:00,68.3,58.5,30.15,SSW,210,3.5,10.9,71,0.00,,FEW045,0.00,VWS V14.00,2013-04-17 00:20:00,
2013-04-16 20:25:00,64.6,55.2,30.15,SW,224,0.0,10.9,71,0.00,,FEW045,0.00,VWS V14.00,2013-04-17 00:25:00,
2013-04-16 20:30:00,66.0,56.7,30.15,SSW,200,0.0,10.9,72,0.00,,FEW045,0.00,VWS V14.00,2013-04-17 00:30:00,
2013-04-16 20:35:00,64.2,55.2,30.15,South,176,0.0,10.9,72,0.00,,CLR,0.00,VWS V14.00,2013-04-17 00:35:00,
2013-04-16 20:40:00,64.3,55.5,30.16,South,173,0.0,10.9,73,0.00,,CLR,0.00,VWS V14.00,2013-04-17 00:40:00,
2013-04-16 20:45:00,67.4,58.8,30.16,SSE,150,0.0,10.9,74,0.00,,CLR,0.00,VWS V14.00,2013-04-17 00:45:00,
2013-04-16 20:50:00,67.1,58.8,30.16,SSW,204,0.0,10.9,75,0.00,,CLR,0.00,VWS V14.00,2013-04-17 00:50:00,
2013-04-16 20:55:00,66.4,58.3,30.16,SSW,204,0.0,10.9,75,0.00,,CLR,0.00,VWS V14.00,2013-04-17 00:55:00,
2013-04-16 21:00:00,65.5,57.7,30.16,SW,218,0.0,10.9,76,0.00,,CLR,0.00,VWS V14.00,2013-04-17 01:00:00,
2013-04-16 21:05:00,64.4,56.8,30.17,SW,218,0.0,10.9,76,0.00,,CLR,0.00,VWS V14.00,2013-04-17 01:05:00,
2013-04-16 21:10:00,65.4,57.9,30.17,SSW,201,0.0,10.9,77,0.00,,CLR,0.00,VWS V14.00,2013-04-17 01:10:00,
2013-04-16 21:15:00,60.7,53.6,30.16,SSW,201,0.0,10.9,77,0.00,,CLR,0.00,VWS V14.00,2013-04-17 01:15:00,
2013-04-16 21:20:00,65.6,58.6,30.17,SSW,201,0.0,10.9,78,0.00,,CLR,0.00,VWS V14.00,2013-04-17 01:20:00,
2013-04-16 21:25:00,66.5,59.7,30.17,SW,214,0.0,10.9,79,0.00,,CLR,0.00,VWS V14.00,2013-04-17 01:25:00,
2013-04-16 21:30:00,66.3,59.8,30.17,SW,214,0.0,10.9,80,0.00,,CLR,0.00,VWS V14.00,2013-04-17 01:30:00,
2013-04-16 21:35:00,66.4,60.3,30.18,South,177,4.2,10.9,81,0.00,,CLR,0.00,VWS V14.00,2013-04-17 01:35:00,
2013-04-16 21:40:00,66.4,60.4,30.18,South,177,0.0,10.9,81,0.00,,CLR,0.00,VWS V14.00,2013-04-17 01:40:00,
2013-04-16 21:45:00,65.5,59.7,30.18,South,177,0.0,10.9,81,0.00,,CLR,0.00,VWS V14.00,2013-04-17 01:45:00,
2013-04-16 21:50:00,65.9,60.2,30.18,South,188,0.0,10.9,82,0.00,,CLR,0.00,VWS V14.00,2013-04-17 01:50:00,
2013-04-16 21:55:00,65.6,60.0,30.18,South,188,0.0,10.9,82,0.00,,CLR,0.00,VWS V14.00,2013-04-17 01:55:00,
2013-04-16 22:00:00,65.6,60.2,30.19,South,188,0.0,10.9,83,0.00,,CLR,0.00,VWS V14.00,2013-04-17 02:00:00,
2013-04-16 22:05:00,64.8,59.7,30.19,SSE,160,0.0,10.9,84,0.00,,CLR,0.00,VWS V14.00,2013-04-17 02:05:00,
2013-04-16 22:10:00,64.4,59.5,30.18,SSE,160,0.0,10.9,84,0.00,,CLR,0.00,VWS V14.00,2013-04-17 02:10:00,
2013-04-16 22:15:00,63.5,58.8,30.19,SSE,160,0.0,10.9,85,0.00,,CLR,0.00,VWS V14.00,2013-04-17 02:15:00,
2013-04-16 22:20:00,63.4,59.0,30.19,SSE,160,0.0,10.9,85,0.00,,CLR,0.00,VWS V14.00,2013-04-17 02:20:00,
2013-04-16 22:25:00,62.3,58.2,30.19,SSE,160,0.0,10.9,86,0.00,,CLR,0.00,VWS V14.00,2013-04-17 02:25:00,
2013-04-16 22:30:00,60.9,57.1,30.19,SSE,160,0.0,10.9,87,0.00,,CLR,0.00,VWS V14.00,2013-04-17 02:30:00,
2013-04-16 22:35:00,59.9,56.4,30.19,SSE,160,0.0,10.9,88,0.00,,CLR,0.00,VWS V14.00,2013-04-17 02:35:00,
2013-04-16 22:40:00,58.8,55.5,30.18,SSE,160,0.0,10.9,89,0.00,,CLR,0.00,VWS V14.00,2013-04-17 02:40:00,
2013-04-16 22:45:00,58.9,55.9,30.19,SSE,160,0.0,10.9,90,0.00,,FEW050,0.00,VWS V14.00,2013-04-17 02:45:00,
2013-04-16 22:50:00,61.3,58.4,30.19,SSE,160,0.0,10.9,90,0.00,,FEW050,0.00,VWS V14.00,2013-04-17 02:50:00,
2013-04-16 22:55:00,61.7,59.0,30.19,SSE,160,0.0,10.9,91,0.00,,FEW050,0.00,VWS V14.00,2013-04-17 02:55:00,
2013-04-16 22:58:00,61.3,58.5,30.17,SSW,194,6.2,10.9,90,0.00,,BKN050,0.00,VWS V14.00,2013-04-17 02:58:00,
2013-04-16 23:00:00,62.7,60.0,30.19,SSE,160,0.0,10.9,91,0.00,,FEW050,0.00,VWS V14.00,2013-04-17 03:00:00,
2013-04-16 23:05:00,62.1,59.5,30.19,SSE,160,0.0,10.9,91,0.00,,FEW050,0.00,VWS V14.00,2013-04-17 03:05:00,
2013-04-16 23:10:00,61.6,59.1,30.19,SSE,160,0.0,10.9,92,0.00,,FEW050,0.00,VWS V14.00,2013-04-17 03:10:00,
2013-04-16 23:15:00,61.8,59.5,30.18,SSE,160,0.0,10.9,92,0.00,,FEW050,0.00,VWS V14.00,2013-04-17 03:15:00,
2013-04-16 23:20:00,62.3,60.0,30.18,SSE,160,0.0,10.9,92,0.00,,FEW050,0.00,VWS V14.00,2013-04-17 03:20:00,
2013-04-16 23:25:00,62.1,59.7,30.18,SSE,160,0.0,10.9,92,0.00,,FEW050,0.00,VWS V14.00,2013-04-17 03:25:00,
2013-04-16 23:30:00,62.0,59.5,30.18,SW,214,0.0,10.9,92,0.00,,FEW050,0.00,VWS V14.00,2013-04-17 03:30:00,
2013-04-16 23:35:00,61.8,59.2,30.18,South,190,0.0,10.9,91,0.00,,FEW050,0.00,VWS V14.00,2013-04-17 03:35:00,
2013-04-16 23:40:00,62.3,59.6,30.17,South,181,0.0,10.9,91,0.00,,FEW050,0.00,VWS V14.00,2013-04-17 03:40:00,
2013-04-16 23:45:00,62.0,59.3,30.17,SW,218,0.0,10.9,91,0.00,,BKN050,0.00,VWS V14.00,2013-04-17 03:45:00,
2013-04-16 23:50:00,61.5,58.8,30.17,SSW,198,7.6,10.9,91,0.00,,BKN050,0.00,VWS V14.00,2013-04-17 03:50:00,
2013-04-16 23:55:00,62.1,59.3,30.17,South,180,0.0,10.9,91,0.00,,BKN050,0.00,VWS V14.00,2013-04-17 03:55:00,